Regional Weather Roundup
Issued by NWS Albany, NY

Home | Current Version | Previous Version | Text Only | Print | Product List | Glossary On
Versions: 1 2 3 4 5 6 7 8 9 10 11 12 13 14 15 16 17 18 19 20 21 22 23 24 25 26 27 28 29 30 31 32 33 34 35 36 37 38 39 40 41 42 43 44 45 46 47 48 49 50
000
ASUS41 KALY 200710
RWRALY

NEW YORK STATE HOURLY WEATHER ROUNDUP
NATIONAL WEATHER SERVICE ALBANY NY
300 AM EDT MON OCT 20 2014

NOTE: "FAIR" INDICATES FEW OR NO CLOUDS BELOW 12,000 FEET WITH NO
SIGNIFICANT WEATHER AND/OR NO OBSTRUCTIONS TO VISIBILITY.

NYZ032-033-038>043-046>054-057>066-NYZ062>081-200800-
EAST


CITY           SKY/WX    TMP DP  RH WIND       PRES   REMARKS
ALBANY         CLOUDY    36  30  79 CALM      30.04S
GLENS FALLS    FAIR      29  25  85 CALM      30.02R
POUGHKEEPSIE   FAIR      33  30  88 CALM      30.05F
NEWBURGH       CLEAR     37  30  75 N6        30.05F WCI  33
MONTGOMERY     FAIR      37  28  70 W8        30.04F WCI  31
WHITE PLAINS   FAIR      37  30  75 CALM      30.04R
ISLIP          FAIR      38  29  70 SW3       30.06R
NEW YORK CITY  FAIR      44  28  53 W9        30.08R
CENTRAL PARK   FAIR      42  28  57 VRB3      30.10R
$$

NYZ005>009-017-018-044>046-055-056-200800-
CENTRAL


CITY           SKY/WX    TMP DP  RH WIND       PRES   REMARKS
FULTON         FAIR      37  32  82 S7        30.01F WCI  32
SYRACUSE       PTCLDY    40  32  72 CALM      30.03F
ROME           MOCLDY    33  32  96 CALM      30.04S
ELMIRA         FAIR      29  28  96 CALM      30.04F
BINGHAMTON     FAIR      33  27  78 SW7       30.02S WCI  27
MONTICELLO     FAIR      32  27  80 W3        30.02F
$$

NYZ026>034-041>043-200800-
NORTH


CITY           SKY/WX    TMP DP  RH WIND       PRES   REMARKS
WATERTOWN      MOCLDY    33  27  78 S3        30.00F
FORT DRUM      NOT AVBL
MASSENA        FAIR      30  27  88 SW5       30.01S WCI  25
SARANAC LAKE   FAIR      24  22  91 CALM      29.94S
PLATTSBURGH    MOCLDY    34  26  72 CALM      30.00R
$$

NYZ001>004-010>016-019>021-200800-
WEST


CITY           SKY/WX    TMP DP  RH WIND       PRES   REMARKS
NIAGARA FALLS  CLOUDY    40  36  86 SE3       29.98F
BUFFALO        CLOUDY    45  37  73 S5        29.99F
DUNKIRK        FAIR      45  35  68 S12G21    30.00F
JAMESTOWN      CLOUDY    36  32  87 S6        30.00F WCI  31
WELLSVILLE     CLOUDY    38  30  73 SW5       30.00F WCI  34
ROCHESTER      CLOUDY    40  34  79 SW6       30.01F
PENN YAN       CLOUDY    40  33  76 SW7       30.01F
$$

             KEY
       WCI = WIND CHILL INDEX
       VSB = VISIBILITY
       HX  = HEAT INDEX
$$


USA.gov is the U.S. government's official web portal to all federal, state and local government web resources and services.